Weather History for Toledo, OH

Change the Weather History Date:

Wednesday, August 20, 2014

  Actual Average Record
Temperature  
Mean Temperature 75 °F 71 °F  
Max Temperature 85 °F 82 °F 99 °F (1916)
Min Temperature 65 °F 61 °F 49 °F (1998)
Degree Days  
Heating Degree Days 0 0  
Month to date heating degree days 5 0  
Since 1 June heating degree days 30 38  
Since 1 July heating degree days 14 3  
Cooling Degree Days 10 7  
Month to date cooling degree days 100 149  
Year to date cooling degree days 490 637  
Since 1 June cooling degree days 428 584  
Growing Degree Days 24 (Base 50)    
Moisture  
Dew Point 66 °F    
Average Humidity 76    
Maximum Humidity 100    
Minimum Humidity 51    
Precipitation  
Precipitation T in 0.10 in 2.00 in (2007)
Month to date precipitation 2.47 2.07  
Year to date precipitation 21.13 22.24  
Snow  
Snow 0.00 in 0.00 in - ()
Month to date snowfall 0.0 0.0  
Since 1 June snowfall 0.0 0.0  
Since 1 July snowfall 0.0 0.0  
Snow Depth 0.00 in    
Sea Level Pressure  
Sea Level Pressure 29.85 in    
Wind  
Wind Speed 6 mph (WSW)    
Max Wind Speed 21 mph    
Max Gust Speed 25 mph    
Visibility 9 miles    
Events      
T = Trace of Precipitation, MM = Missing Value Source: NWS Daily Summary

Daily Weather History Graph

Daily Weather History Graph

Search for Another Location

Airport:

Trip Planner

Search our weather history database for the weather conditions in past years. The results will help you decide how hot, cold, wet, or windy it might be!

Date:

Astronomy

Aug. 20, 2014 Rise Set
Actual Time 6:49 AM EDT 8:27 PM EDT
Civil Twilight 6:19 AM EDT 8:56 PM EDT
Nautical Twilight 5:43 AM EDT 9:32 PM EDT
Astronomical Twilight 5:05 AM EDT 10:10 PM EDT
Moon 2:26 AM EDT (8/20) 5:12 PM EDT (8/20)
Length of Visible Light 14h 37m
Length of Day
13h 38m
Waning Crescent, 21% of the Moon is Illuminated
Aug 20
Waning Crescent
Aug 25
New
Sep 2
First Quarter
Sep 8
Full
Sep 15
Last Quarter

Hourly Weather History & Observations

Time (EDT) Temp. Heat Index Dew Point Humidity Pressure Visibility Wind Dir Wind Speed Gust Speed Precip Events Conditions
12:52 AM 66.9 °F - 64.9 °F 93% 29.78 in 9.0 mi Calm Calm - N/A   Partly Cloudy
1:52 AM 66.9 °F - 66.0 °F 97% 29.78 in 8.0 mi Calm Calm - N/A   Clear
2:52 AM 64.9 °F - 64.9 °F 100% 29.77 in 6.0 mi Calm Calm - N/A   Clear
3:52 AM 64.9 °F - 64.0 °F 97% 29.78 in 7.0 mi SE 4.6 mph - N/A   Mostly Cloudy
4:52 AM 66.0 °F - 64.9 °F 96% 29.79 in 7.0 mi SSW 4.6 mph - N/A   Mostly Cloudy
5:52 AM 66.9 °F - 64.9 °F 93% 29.79 in 9.0 mi SW 5.8 mph - N/A   Clear
6:52 AM 66.9 °F - 64.9 °F 93% 29.81 in 8.0 mi SW 6.9 mph - N/A   Clear
7:52 AM 66.9 °F - 66.0 °F 97% 29.83 in 5.0 mi WSW 6.9 mph - N/A   Clear
8:35 AM 69.8 °F - 66.2 °F 88% 29.85 in 6.0 mi WSW 8.1 mph - N/A   Partly Cloudy
8:52 AM 69.1 °F - 66.0 °F 90% 29.85 in 7.0 mi WSW 6.9 mph - N/A   Partly Cloudy
9:31 AM 71.6 °F - 66.2 °F 83% 29.86 in 8.0 mi West 8.1 mph - N/A   Mostly Cloudy
9:38 AM 71.6 °F - 66.2 °F 83% 29.86 in 8.0 mi West 6.9 mph - N/A   Mostly Cloudy
9:52 AM 72.0 °F - 66.9 °F 84% 29.85 in 8.0 mi West 4.6 mph - N/A   Overcast
10:45 AM 75.2 °F - 68.0 °F 78% 29.87 in 10.0 mi WSW 3.5 mph - N/A   Mostly Cloudy
10:52 AM 75.0 °F - 68.0 °F 79% 29.86 in 10.0 mi West 4.6 mph - N/A   Scattered Clouds
11:52 AM 78.1 °F - 68.0 °F 71% 29.87 in 10.0 mi SW 4.6 mph - N/A   Partly Cloudy
12:52 PM 81.0 °F 83.3 °F 66.9 °F 62% 29.88 in 10.0 mi West 10.4 mph - N/A   Scattered Clouds
1:52 PM 81.0 °F 82.5 °F 64.0 °F 56% 29.88 in 10.0 mi West 15.0 mph - N/A   Overcast
2:52 PM 82.9 °F 84.6 °F 64.9 °F 54% 29.89 in 10.0 mi WSW 16.1 mph 24.2 mph N/A   Mostly Cloudy
3:52 PM 81.0 °F 83.0 °F 66.0 °F 60% 29.89 in 10.0 mi WSW 15.0 mph - 0.00 in   Overcast
4:52 PM 84.0 °F 85.8 °F 64.9 °F 53% 29.87 in 10.0 mi West 11.5 mph - N/A   Mostly Cloudy
5:52 PM 82.9 °F 84.6 °F 64.9 °F 54% 29.87 in 10.0 mi West 11.5 mph - N/A   Clear
6:52 PM 82.9 °F 84.4 °F 64.0 °F 53% 29.87 in 10.0 mi WNW 8.1 mph - N/A   Clear
7:52 PM 80.1 °F 82.1 °F 66.0 °F 62% 29.88 in 10.0 mi NW 3.5 mph - N/A   Clear
8:52 PM 72.0 °F - 66.9 °F 84% 29.89 in 10.0 mi Calm Calm - N/A   Clear
9:52 PM 70.0 °F - 66.9 °F 90% 29.93 in 9.0 mi Calm Calm - N/A   Clear
10:52 PM 68.0 °F - 66.0 °F 93% 29.95 in 9.0 mi Calm Calm - N/A   Clear
11:52 PM 68.0 °F - 66.0 °F 93% 29.96 in 9.0 mi Calm Calm - N/A   Clear